| time (UTC) | temp F | wind direction | speed MPH | gust MPH | rain 1hr in | rain 24hr in | rain mn in | humidity % | barometer mb |
| 20260506221758 | 57 | 84 | 3.0 | 6.0 | 0.00 | 0.00 | 0.00 | 52 | 1012.4 |
| 20260506221253 | 57 | 331 | 0.0 | 3.0 | 0.00 | 0.00 | 0.00 | 52 | 1012.1 |
| 20260506220753 | 57 | 119 | 0.0 | 4.0 | 0.00 | 0.00 | 0.00 | 51 | 1012.3 |
| 20260506220516 | 57 | 12 | 2.0 | 4.0 | 0.00 | 0.00 | 0.00 | 51 | 1012.3 |
| 20260506215752 | 57 | 31 | 0.0 | 4.0 | 0.00 | 0.00 | 0.00 | 51 | 1012.3 |
| 20260506215734 | 57 | 351 | 2.0 | 4.0 | 0.00 | 0.00 | 0.00 | 52 | 1012.2 |
| 20260506214759 | 57 | 29 | 2.0 | 5.0 | 0.00 | 0.00 | 0.00 | 52 | 1011.9 |
| 20260506214250 | 57 | 54 | 3.0 | 5.0 | 0.00 | 0.00 | 0.00 | 52 | 1012.3 |
| 20260506213751 | 56 | 208 | 2.0 | 3.0 | 0.00 | 0.00 | 0.00 | 53 | 1012.5 |
| 20260506213250 | 56 | 279 | 0.0 | 4.0 | 0.00 | 0.00 | 0.00 | 53 | 1012.1 |
| 20260506212751 | 56 | 37 | 1.0 | 4.0 | 0.00 | 0.00 | 0.00 | 52 | 1012.4 |
| 20260506212249 | 56 | 151 | 2.0 | 4.0 | 0.00 | 0.00 | 0.00 | 52 | 1012.1 |
| 20260506212017 | 56 | 119 | 2.0 | 4.0 | 0.00 | 0.00 | 0.00 | 52 | 1012.2 |
| 20260506211249 | 56 | 41 | 2.0 | 4.0 | 0.00 | 0.00 | 0.00 | 52 | 1012.2 |
| 20260506210750 | 56 | 34 | 1.0 | 4.0 | 0.00 | 0.00 | 0.00 | 51 | 1012.2 |
| 20260506210248 | 56 | 126 | 0.0 | 3.0 | 0.00 | 0.00 | 0.00 | 53 | 1012.4 |
| 20260506205749 | 57 | 45 | 2.0 | 3.0 | 0.00 | 0.00 | 0.00 | 55 | 1012.2 |
| 20260506205248 | 57 | 60 | 0.0 | 4.0 | 0.00 | 0.00 | 0.00 | 55 | 1012.1 |
| 20260506204759 | 57 | 315 | 0.0 | 4.0 | 0.00 | 0.00 | 0.00 | 54 | 1012.2 |
| 20260506204251 | 57 | 69 | 0.0 | 3.0 | 0.00 | 0.00 | 0.00 | 55 | 1012.0 |
| 20260506203748 | 57 | 100 | 1.0 | 3.0 | 0.00 | 0.00 | 0.00 | 56 | 1011.8 |
| 20260506203247 | 57 | 77 | 0.0 | 4.0 | 0.00 | 0.00 | 0.00 | 56 | 1012.1 |
| 20260506202748 | 57 | 44 | 0.0 | 4.0 | 0.00 | 0.00 | 0.00 | 57 | 1012.1 |
| 20260506202245 | 57 | 80 | 0.0 | 4.0 | 0.00 | 0.00 | 0.00 | 56 | 1012.2 |
| 20260506201746 | 57 | 91 | 1.0 | 5.0 | 0.00 | 0.00 | 0.00 | 56 | 1012.2 |
| 20260506201253 | 57 | 56 | 2.0 | 5.0 | 0.00 | 0.00 | 0.00 | 57 | 1012.4 |
| 20260506200746 | 58 | 46 | 2.0 | 4.0 | 0.00 | 0.00 | 0.00 | 58 | 1012.2 |
| 20260506200244 | 58 | 58 | 1.0 | 4.0 | 0.00 | 0.00 | 0.00 | 57 | 1012.3 |
| 20260506195745 | 58 | 320 | 1.0 | 4.0 | 0.00 | 0.00 | 0.00 | 55 | 1012.5 |
| 20260506195243 | 58 | 41 | 1.0 | 3.0 | 0.00 | 0.00 | 0.00 | 53 | 1012.4 |
| 20260506194745 | 58 | 339 | 0.0 | 2.0 | 0.00 | 0.00 | 0.00 | 52 | 1012.6 |
| 20260506194254 | 57 | 25 | 0.0 | 4.0 | 0.00 | 0.00 | 0.00 | 54 | 1012.4 |
| 20260506193749 | 57 | 27 | 1.0 | 4.0 | 0.00 | 0.00 | 0.00 | 54 | 1012.6 |
| 20260506193241 | 56 | 98 | 0.0 | 3.0 | 0.00 | 0.00 | 0.00 | 56 | 1012.4 |
| 20260506192743 | 56 | 295 | 0.0 | 4.0 | 0.00 | 0.00 | 0.00 | 56 | 1012.7 |
| 20260506192500 | 56 | 99 | 2.0 | 4.0 | 0.00 | 0.00 | 0.00 | 56 | 1012.5 |
| 20260506191742 | 56 | 183 | 2.0 | 4.0 | 0.00 | 0.00 | 0.00 | 57 | 1012.7 |
| 20260506191240 | 56 | 358 | 3.0 | 4.0 | 0.00 | 0.00 | 0.00 | 57 | 1012.7 |
| 20260506190743 | 56 | 76 | 2.0 | 5.0 | 0.00 | 0.00 | 0.00 | 57 | 1012.8 |
| 20260506190246 | 56 | 61 | 2.0 | 5.0 | 0.00 | 0.00 | 0.00 | 57 | 1012.9 |
| 20260506185740 | 56 | 36 | 4.0 | 4.0 | 0.00 | 0.00 | 0.00 | 54 | 1013.0 |
| 20260506185239 | 55 | 124 | 0.0 | 5.0 | 0.00 | 0.00 | 0.00 | 54 | 1013.1 |
| 20260506184959 | 55 | 43 | 1.0 | 5.0 | 0.00 | 0.00 | 0.00 | 55 | 1012.8 |
| 20260506184238 | 55 | 35 | 4.0 | 6.0 | 0.00 | 0.00 | 0.00 | 55 | 1012.9 |
| 20260506184006 | 55 | 91 | 3.0 | 6.0 | 0.00 | 0.00 | 0.00 | 55 | 1012.7 |
| 20260506183241 | 55 | 150 | 0.0 | 4.0 | 0.00 | 0.00 | 0.00 | 55 | 1012.8 |
| 20260506182739 | 55 | 76 | 1.0 | 4.0 | 0.00 | 0.00 | 0.00 | 55 | 1012.4 |
| 20260506182237 | 55 | 37 | 1.0 | 4.0 | 0.00 | 0.00 | 0.00 | 56 | 1012.6 |
| 20260506181738 | 55 | 49 | 2.0 | 5.0 | 0.00 | 0.00 | 0.00 | 55 | 1012.8 |
| 20260506181508 | 55 | 187 | 2.0 | 6.0 | 0.00 | 0.00 | 0.00 | 54 | 1012.5 |
| 20260506181000 | 55 | 110 | 1.0 | 6.0 | 0.00 | 0.00 | 0.00 | 54 | 1012.5 |
| 20260506180235 | 55 | 65 | 0.0 | 6.0 | 0.00 | 0.00 | 0.00 | 56 | 1012.5 |
| 20260506175744 | 54 | 165 | 2.0 | 10.0 | 0.00 | 0.00 | 0.00 | 56 | 1012.6 |
| 20260506175455 | 54 | 49 | 0.0 | 10.0 | 0.00 | 0.00 | 0.00 | 55 | 1012.4 |
| 20260506174736 | 55 | 23 | 0.0 | 4.0 | 0.00 | 0.00 | 0.00 | 57 | 1012.8 |
| 20260506174507 | 54 | 72 | 1.0 | 4.0 | 0.00 | 0.00 | 0.00 | 58 | 1012.9 |
| 20260506173735 | 54 | 54 | 2.0 | 7.0 | 0.00 | 0.00 | 0.00 | 59 | 1012.6 |
| 20260506173243 | 54 | 57 | 2.0 | 7.0 | 0.00 | 0.00 | 0.00 | 59 | 1012.8 |
| 20260506172735 | 54 | 5 | 3.0 | 4.0 | 0.00 | 0.00 | 0.00 | 56 | 1013.1 |
| 20260506172233 | 54 | 35 | 3.0 | 4.0 | 0.00 | 0.00 | 0.00 | 58 | 1012.8 |
| 20260506171958 | 54 | 49 | 1.0 | 4.0 | 0.00 | 0.00 | 0.00 | 58 | 1013.2 |
| 20260506171453 | 54 | 359 | 0.0 | 3.0 | 0.00 | 0.00 | 0.00 | 56 | 1013.0 |
| 20260506170734 | 54 | 44 | 0.0 | 3.0 | 0.00 | 0.00 | 0.00 | 56 | 1013.1 |
| 20260506170232 | 54 | 43 | 1.0 | 5.0 | 0.00 | 0.00 | 0.00 | 56 | 1013.1 |
| 20260506165740 | 54 | 32 | 2.0 | 5.0 | 0.00 | 0.00 | 0.00 | 56 | 1013.1 |
| 20260506165232 | 54 | 53 | 3.0 | 5.0 | 0.00 | 0.00 | 0.00 | 55 | 1013.0 |
| 20260506164733 | 54 | 24 | 2.0 | 5.0 | 0.00 | 0.00 | 0.00 | 55 | 1012.8 |
| 20260506164231 | 55 | 116 | 1.0 | 5.0 | 0.00 | 0.00 | 0.00 | 56 | 1012.9 |
| 20260506163732 | 55 | 30 | 2.0 | 5.0 | 0.00 | 0.00 | 0.00 | 57 | 1013.0 |
| 20260506163231 | 55 | 126 | 0.0 | 3.0 | 0.00 | 0.00 | 0.00 | 57 | 1013.0 |
| 20260506162741 | 55 | 52 | 2.0 | 4.0 | 0.00 | 0.00 | 0.00 | 58 | 1012.9 |
| 20260506162230 | 55 | 71 | 0.0 | 4.0 | 0.00 | 0.00 | 0.00 | 59 | 1012.8 |
| 20260506161951 | 55 | 0 | 2.0 | 4.0 | 0.00 | 0.00 | 0.00 | 60 | 1013.0 |
| 20260506161452 | 55 | 40 | 2.0 | 8.0 | 0.00 | 0.00 | 0.00 | 60 | 1012.6 |
| 20260506160733 | 55 | 35 | 2.0 | 8.0 | 0.00 | 0.00 | 0.00 | 60 | 1012.6 |
| 20260506160453 | 55 | 30 | 3.0 | 6.0 | 0.00 | 0.00 | 0.00 | 59 | 1012.7 |
| 20260506155729 | 55 | 238 | 5.0 | 5.0 | 0.00 | 0.00 | 0.00 | 58 | 1013.0 |
| 20260506155207 | 55 | 44 | 3.0 | 6.0 | 0.00 | 0.00 | 0.00 | 59 | 1012.9 |
| 20260506154707 | 55 | 63 | 2.0 | 5.0 | 0.00 | 0.00 | 0.00 | 59 | 1012.5 |
| 20260506154451 | 55 | 31 | 2.0 | 5.0 | 0.00 | 0.00 | 0.00 | 59 | 1012.6 |
| 20260506153709 | 55 | 235 | 0.0 | 5.0 | 0.00 | 0.00 | 0.00 | 62 | 1012.6 |
| 20260506153200 | 55 | 85 | 2.0 | 4.0 | 0.00 | 0.00 | 0.00 | 63 | 1012.6 |
| 20260506152921 | 54 | 346 | 0.0 | 4.0 | 0.00 | 0.00 | 0.00 | 64 | 1012.5 |
| 20260506152149 | 53 | 341 | 1.0 | 4.0 | 0.00 | 0.00 | 0.00 | 65 | 1012.4 |
| 20260506151645 | 53 | 10 | 2.0 | 5.0 | 0.00 | 0.00 | 0.00 | 65 | 1012.5 |
| 20260506151146 | 53 | 184 | 0.0 | 5.0 | 0.00 | 0.00 | 0.00 | 66 | 1012.4 |
| 20260506150853 | 53 | 182 | 0.0 | 4.0 | 0.00 | 0.00 | 0.00 | 65 | 1012.3 |
| 20260506150129 | 53 | 7 | 2.0 | 6.0 | 0.00 | 0.00 | 0.00 | 65 | 1012.5 |
| 20260506145851 | 52 | 115 | 1.0 | 6.0 | 0.00 | 0.00 | 0.00 | 65 | 1012.3 |
| 20260506145204 | 51 | 69 | 0.0 | 4.0 | 0.00 | 0.00 | 0.00 | 64 | 1012.1 |
| 20260506145154 | 52 | 77 | 2.0 | 5.0 | 0.00 | 0.00 | 0.00 | 62 | 1012.2 |
| 20260506144121 | 51 | 168 | 0.0 | 4.0 | 0.00 | 0.00 | 0.00 | 62 | 1012.2 |
| 20260506143616 | 51 | 40 | 3.0 | 4.0 | 0.00 | 0.00 | 0.00 | 63 | 1012.1 |
| 20260506143112 | 51 | 55 | 2.0 | 4.0 | 0.00 | 0.00 | 0.00 | 64 | 1012.2 |
| 20260506142611 | 50 | 97 | 1.0 | 5.0 | 0.00 | 0.00 | 0.00 | 63 | 1012.0 |
| 20260506142109 | 50 | 34 | 2.0 | 5.0 | 0.00 | 0.00 | 0.00 | 62 | 1012.1 |
| 20260506141559 | 50 | 63 | 1.0 | 5.0 | 0.00 | 0.00 | 0.00 | 63 | 1012.1 |
| 20260506141057 | 50 | 354 | 1.0 | 5.0 | 0.00 | 0.00 | 0.00 | 63 | 1012.0 |
| 20260506140558 | 49 | 133 | 2.0 | 4.0 | 0.00 | 0.00 | 0.00 | 62 | 1011.9 |
| 20260506140111 | 49 | 60 | 1.0 | 5.0 | 0.00 | 0.00 | 0.00 | 61 | 1012.0 |
| 20260506140043 | 49 | 160 | 0.0 | 3.0 | 0.00 | 0.00 | 0.00 | 61 | 1012.2 |
| 20260506134945 | 49 | 93 | 0.0 | 6.0 | 0.00 | 0.00 | 0.00 | 61 | 1012.0 |
| 20260506134454 | 49 | 236 | 0.0 | 6.0 | 0.00 | 0.00 | 0.00 | 62 | 1012.0 |
| 20260506134234 | 49 | 72 | 0.0 | 6.0 | 0.00 | 0.00 | 0.00 | 62 | 1011.9 |
| 20260506133437 | 49 | 62 | 1.0 | 6.0 | 0.00 | 0.00 | 0.00 | 62 | 1011.8 |
| 20260506132934 | 49 | 46 | 1.0 | 6.0 | 0.00 | 0.00 | 0.00 | 62 | 1012.0 |
| 20260506132444 | 49 | 31 | 2.0 | 5.0 | 0.00 | 0.00 | 0.00 | 63 | 1011.7 |
| 20260506131933 | 48 | 62 | 4.0 | 5.0 | 0.00 | 0.00 | 0.00 | 63 | 1011.6 |
| 20260506131434 | 48 | 135 | 0.0 | 4.0 | 0.00 | 0.00 | 0.00 | 64 | 1011.8 |
| 20260506130932 | 48 | 50 | 2.0 | 7.0 | 0.00 | 0.00 | 0.00 | 64 | 1011.6 |
| 20260506130433 | 47 | 99 | 1.0 | 7.0 | 0.00 | 0.00 | 0.00 | 65 | 1011.4 |
| 20260506125932 | 47 | 78 | 3.0 | 4.0 | 0.00 | 0.00 | 0.00 | 65 | 1011.2 |
| 20260506125432 | 47 | 64 | 2.0 | 4.0 | 0.00 | 0.00 | 0.00 | 65 | 1011.6 |
| 20260506124928 | 47 | 44 | 2.0 | 5.0 | 0.00 | 0.00 | 0.00 | 66 | 1011.4 |
| 20260506124426 | 47 | 112 | 3.0 | 4.0 | 0.00 | 0.00 | 0.00 | 66 | 1011.3 |
| 20260506123933 | 47 | 94 | 0.0 | 7.0 | 0.00 | 0.00 | 0.00 | 67 | 1011.5 |
| 20260506123420 | 46 | 91 | 1.0 | 7.0 | 0.00 | 0.00 | 0.00 | 67 | 1011.5 |
| 20260506122921 | 46 | 60 | 2.0 | 4.0 | 0.00 | 0.00 | 0.00 | 67 | 1011.3 |
| 20260506122417 | 46 | 152 | 0.0 | 5.0 | 0.00 | 0.00 | 0.00 | 68 | 1011.4 |
| 20260506121910 | 46 | 41 | 4.0 | 5.0 | 0.00 | 0.00 | 0.00 | 68 | 1011.0 |
| 20260506121403 | 45 | 105 | 2.0 | 4.0 | 0.00 | 0.00 | 0.00 | 68 | 1010.8 |
| 20260506120900 | 45 | 127 | 2.0 | 3.0 | 0.00 | 0.00 | 0.00 | 68 | 1010.7 |
| 20260506120404 | 45 | 87 | 1.0 | 3.0 | 0.00 | 0.00 | 0.00 | 68 | 1010.8 |
| 20260506115903 | 45 | 85 | 0.0 | 4.0 | 0.00 | 0.00 | 0.00 | 69 | 1010.5 |
| 20260506115410 | 44 | 110 | 0.0 | 4.0 | 0.00 | 0.00 | 0.00 | 69 | 1010.6 |
| 20260506114901 | 44 | 107 | 1.0 | 5.0 | 0.00 | 0.00 | 0.00 | 69 | 1010.3 |
| 20260506114839 | 44 | 255 | 0.0 | 5.0 | 0.00 | 0.00 | 0.00 | 69 | 1010.5 |
| 20260506113842 | 44 | 84 | 1.0 | 2.0 | 0.00 | 0.00 | 0.00 | 69 | 1010.6 |
| 20260506113346 | 44 | 96 | 1.0 | 2.0 | 0.00 | 0.00 | 0.00 | 69 | 1010.6 |
| 20260506112826 | 44 | 110 | 0.0 | 2.0 | 0.00 | 0.00 | 0.00 | 69 | 1010.3 |
| 20260506112324 | 44 | 78 | 0.0 | 2.0 | 0.00 | 0.00 | 0.00 | 69 | 1010.4 |
| 20260506112042 | 44 | 87 | 1.0 | 2.0 | 0.00 | 0.00 | 0.00 | 69 | 1010.0 |
| 20260506111549 | 44 | 84 | 2.0 | 2.0 | 0.00 | 0.00 | 0.00 | 69 | 1010.3 |
| 20260506110814 | 45 | 91 | 0.0 | 2.0 | 0.00 | 0.00 | 0.00 | 70 | 1010.1 |
| 20260506110530 | 45 | 96 | 2.0 | 0.0 | 0.00 | 0.00 | 0.00 | 70 | 1009.9 |
| 20260506105618 | 45 | 96 | 2.0 | 2.0 | 0.00 | 0.12 | 0.00 | 70 | 1009.9 |
| 20260506105334 | 45 | 129 | 0.0 | 2.0 | 0.00 | 0.12 | 0.00 | 70 | 1009.8 |
| 20260506104620 | 45 | 97 | 2.0 | 2.0 | 0.00 | 0.12 | 0.00 | 70 | 1009.8 |
| 20260506104116 | 45 | 80 | 2.0 | 4.0 | 0.00 | 0.12 | 0.00 | 70 | 1009.7 |
| 20260506103617 | 45 | 82 | 1.0 | 4.0 | 0.00 | 0.12 | 0.00 | 71 | 1009.7 |
| 20260506103115 | 45 | 95 | 1.0 | 2.0 | 0.00 | 0.12 | 0.00 | 71 | 1009.4 |
| 20260506102616 | 45 | 99 | 0.0 | 2.0 | 0.00 | 0.12 | 0.00 | 71 | 1009.6 |
| 20260506102339 | 45 | 89 | 1.0 | 2.0 | 0.00 | 0.12 | 0.00 | 71 | 1009.5 |
| 20260506102106 | 45 | 80 | 1.0 | 2.0 | 0.00 | 0.12 | 0.00 | 72 | 1009.5 |
| 20260506101114 | 45 | 75 | 0.0 | 3.0 | 0.00 | 0.12 | 0.00 | 72 | 1009.4 |
| 20260506100615 | 45 | 56 | 1.0 | 3.0 | 0.00 | 0.12 | 0.00 | 72 | 1009.2 |
| 20260506100113 | 45 | 83 | 1.0 | 2.0 | 0.00 | 0.12 | 0.00 | 72 | 1009.4 |
| 20260506095614 | 45 | 99 | 1.0 | 2.0 | 0.00 | 0.12 | 0.00 | 73 | 1009.5 |
| 20260506095113 | 45 | 124 | 0.0 | 2.0 | 0.00 | 0.12 | 0.00 | 73 | 1009.2 |
| 20260506094614 | 45 | 40 | 2.0 | 2.0 | 0.00 | 0.12 | 0.00 | 73 | 1009.1 |
| 20260506094558 | 45 | 77 | 0.0 | 2.0 | 0.00 | 0.12 | 0.00 | 73 | 1009.2 |
| 20260506093835 | 45 | 84 | 0.0 | 2.0 | 0.00 | 0.12 | 0.00 | 74 | 1008.8 |
| 20260506093112 | 45 | 101 | 1.0 | 2.0 | 0.00 | 0.12 | 0.00 | 74 | 1009.2 |
| 20260506092613 | 45 | 98 | 0.0 | 2.0 | 0.00 | 0.12 | 0.00 | 74 | 1008.9 |
| 20260506092111 | 45 | 89 | 0.0 | 2.0 | 0.00 | 0.12 | 0.00 | 74 | 1009.2 |
| 20260506091839 | 45 | 99 | 0.0 | 2.0 | 0.00 | 0.12 | 0.00 | 75 | 1009.2 |
| 20260506091334 | 45 | 106 | 0.0 | 2.0 | 0.00 | 0.12 | 0.00 | 75 | 1009.4 |
| 20260506090613 | 45 | 139 | 0.0 | 2.0 | 0.00 | 0.12 | 0.00 | 75 | 1009.3 |
| 20260506090111 | 45 | 82 | 1.0 | 2.0 | 0.00 | 0.12 | 0.00 | 76 | 1008.9 |
| 20260506085829 | 45 | 89 | 0.0 | 2.0 | 0.00 | 0.12 | 0.00 | 76 | 1009.2 |
| 20260506085110 | 45 | 89 | 0.0 | 2.0 | 0.00 | 0.12 | 0.00 | 76 | 1009.1 |
| 20260506084611 | 45 | 89 | 1.0 | 2.0 | 0.00 | 0.12 | 0.00 | 76 | 1008.5 |
| 20260506084121 | 45 | 94 | 0.0 | 2.0 | 0.00 | 0.12 | 0.00 | 77 | 1008.9 |
| 20260506083613 | 45 | 81 | 0.0 | 3.0 | 0.00 | 0.12 | 0.00 | 77 | 1009.1 |
| 20260506083109 | 45 | 77 | 0.0 | 3.0 | 0.00 | 0.12 | 0.00 | 77 | 1008.7 |
| 20260506082617 | 45 | 105 | 1.0 | 2.0 | 0.00 | 0.12 | 0.00 | 78 | 1008.8 |
| 20260506082610 | 45 | 96 | 1.0 | 3.0 | 0.00 | 0.12 | 0.00 | 77 | 1008.5 |
| 20260506081609 | 45 | 62 | 0.0 | 2.0 | 0.00 | 0.12 | 0.00 | 78 | 1008.5 |
| 20260506081109 | 45 | 156 | 0.0 | 2.0 | 0.00 | 0.12 | 0.00 | 78 | 1008.8 |
| 20260506080620 | 45 | 97 | 0.0 | 2.0 | 0.00 | 0.12 | 0.00 | 78 | 1008.8 |
| 20260506080107 | 45 | 89 | 1.0 | 2.0 | 0.00 | 0.12 | 0.00 | 78 | 1008.9 |
| 20260506073106 | 45 | 115 | 1.0 | 2.0 | 0.00 | 0.12 | 0.00 | 79 | 1008.4 |
| 20260506072825 | 45 | 89 | 0.0 | 2.0 | 0.00 | 0.12 | 0.00 | 79 | 1008.5 |
| 20260506072106 | 45 | 95 | 1.0 | 2.0 | 0.00 | 0.12 | 0.00 | 79 | 1008.4 |
| 20260506071606 | 46 | 104 | 0.0 | 2.0 | 0.00 | 0.12 | 0.00 | 79 | 1008.8 |
| 20260506071105 | 46 | 96 | 1.0 | 2.0 | 0.00 | 0.12 | 0.00 | 79 | 1008.8 |
| 20260506070618 | 46 | 89 | 1.0 | 1.0 | 0.00 | 0.12 | 0.00 | 79 | 1009.1 |
| 20260506070555 | 45 | 81 | 1.0 | 2.0 | 0.00 | 0.12 | 0.00 | 79 | 1008.9 |
| 20260506062103 | 46 | 89 | 0.0 | 2.0 | 0.00 | 0.12 | 0.00 | 79 | 1008.7 |
| 20260506061604 | 46 | 87 | 0.0 | 2.0 | 0.00 | 0.12 | 0.00 | 79 | 1009.3 |
| 20260506061102 | 46 | 89 | 0.0 | 2.0 | 0.00 | 0.12 | 0.00 | 79 | 1009.4 |
| 20260506060838 | 46 | 95 | 1.0 | 2.0 | 0.00 | 0.12 | 0.00 | 78 | 1009.4 |
| 20260506051059 | 46 | 84 | 0.0 | 2.0 | 0.00 | 0.12 | 0.00 | 78 | 1009.3 |
| 20260506050601 | 46 | 73 | 0.0 | 2.0 | 0.00 | 0.12 | 0.00 | 78 | 1008.9 |
| 20260506044823 | 46 | 83 | 1.0 | 2.0 | 0.00 | 0.12 | 0.00 | 78 | 1009.1 |
| 20260506044058 | 46 | 94 | 0.0 | 2.0 | 0.00 | 0.12 | 0.00 | 78 | 1009.2 |
| 20260506043559 | 46 | 96 | 1.0 | 2.0 | 0.00 | 0.12 | 0.00 | 78 | 1009.3 |
| 20260506043058 | 46 | 84 | 0.0 | 1.0 | 0.00 | 0.12 | 0.00 | 77 | 1009.3 |
| 20260506042559 | 46 | 92 | 1.0 | 2.0 | 0.00 | 0.12 | 0.00 | 77 | 1009.1 |
| 20260506042058 | 46 | 89 | 0.0 | 2.0 | 0.00 | 0.12 | 0.00 | 77 | 1009.2 |
| 20260506041610 | 46 | 98 | 2.0 | 2.0 | 0.00 | 0.12 | 0.00 | 77 | 1009.2 |
| 20260506041058 | 46 | 102 | 1.0 | 2.0 | 0.00 | 0.12 | 0.00 | 77 | 1009.3 |
| 20260506040821 | 46 | 94 | 0.0 | 2.0 | 0.00 | 0.12 | 0.00 | 77 | 1008.7 |
| 20260506040058 | 46 | 87 | 0.0 | 2.0 | 0.00 | 0.12 | 0.00 | 77 | 1008.7 |
| 20260506035558 | 46 | 100 | 1.0 | 2.0 | 0.00 | 0.12 | 0.24 | 77 | 1008.9 |
| 20260506035320 | 46 | 99 | 0.0 | 2.0 | 0.00 | 0.12 | 0.24 | 77 | 1009.4 |
| 20260506034557 | 46 | 77 | 1.0 | 2.0 | 0.00 | 0.12 | 0.24 | 77 | 1009.1 |
| 20260506034104 | 46 | 72 | 2.0 | 2.0 | 0.00 | 0.12 | 0.24 | 77 | 1009.1 |
| 20260506033557 | 46 | 78 | 1.0 | 2.0 | 0.00 | 0.12 | 0.24 | 77 | 1009.1 |
| 20260506033055 | 46 | 109 | 0.0 | 2.0 | 0.00 | 0.12 | 0.24 | 76 | 1009.2 |
| 20260506032557 | 46 | 77 | 0.0 | 2.0 | 0.00 | 0.12 | 0.24 | 76 | 1009.2 |
| 20260506032320 | 46 | 97 | 0.0 | 2.0 | 0.00 | 0.12 | 0.24 | 76 | 1008.8 |
| 20260506031623 | 46 | 112 | 2.0 | 2.0 | 0.00 | 0.12 | 0.24 | 76 | 1008.9 |
| 20260506031058 | 46 | 89 | 0.0 | 2.0 | 0.00 | 0.12 | 0.24 | 76 | 1008.7 |
| 20260506030816 | 46 | 95 | 1.0 | 2.0 | 0.00 | 0.12 | 0.24 | 76 | 1008.9 |
| 20260506030054 | 46 | 86 | 0.0 | 2.0 | 0.00 | 0.12 | 0.24 | 76 | 1008.4 |
| 20260506025555 | 46 | 93 | 1.0 | 2.0 | 0.01 | 0.12 | 0.24 | 76 | 1008.7 |
| 20260506025053 | 46 | 102 | 1.0 | 2.0 | 0.01 | 0.12 | 0.24 | 76 | 1008.8 |
| 20260506024606 | 46 | 93 | 1.0 | 2.0 | 0.02 | 0.12 | 0.24 | 75 | 1008.6 |
| 20260506024054 | 46 | 88 | 1.0 | 2.0 | 0.02 | 0.12 | 0.24 | 75 | 1009.1 |
| 20260506023654 | 46 | 84 | 1.0 | 2.0 | 0.03 | 0.12 | 0.24 | 75 | 1008.9 |
| 20260506022554 | 46 | 77 | 1.0 | 2.0 | 0.03 | 0.11 | 0.24 | 75 | 1008.7 |
| 20260506022052 | 46 | 84 | 1.0 | 2.0 | 0.03 | 0.11 | 0.24 | 75 | 1008.9 |
| 20260506022039 | 46 | 97 | 1.0 | 2.0 | 0.04 | 0.11 | 0.24 | 74 | 1008.8 |
| 20260506021052 | 46 | 87 | 1.0 | 2.0 | 0.04 | 0.11 | 0.24 | 74 | 1008.8 |
| 20260506020559 | 46 | 99 | 0.0 | 2.0 | 0.04 | 0.11 | 0.24 | 74 | 1008.8 |
| 20260506020052 | 46 | 98 | 1.0 | 2.0 | 0.04 | 0.11 | 0.24 | 74 | 1008.7 |
| 20260506015552 | 46 | 95 | 1.0 | 2.0 | 0.05 | 0.11 | 0.24 | 74 | 1008.8 |
| 20260506015051 | 47 | 99 | 1.0 | 2.0 | 0.06 | 0.11 | 0.23 | 73 | 1008.8 |
| 20260506014552 | 47 | 114 | 2.0 | 2.0 | 0.06 | 0.10 | 0.23 | 73 | 1008.6 |
| 20260506014050 | 47 | 94 | 2.0 | 2.0 | 0.06 | 0.09 | 0.22 | 73 | 1008.8 |
| 20260506013556 | 47 | 85 | 0.0 | 2.0 | 0.06 | 0.09 | 0.22 | 73 | 1008.8 |
| 20260506013049 | 47 | 94 | 1.0 | 2.0 | 0.06 | 0.09 | 0.21 | 72 | 1008.4 |
| 20260506012551 | 47 | 89 | 2.0 | 2.0 | 0.06 | 0.08 | 0.21 | 72 | 1008.8 |
| 20260506012049 | 47 | 68 | 0.0 | 2.0 | 0.07 | 0.08 | 0.21 | 71 | 1008.6 |
| 20260506011551 | 48 | 87 | 0.0 | 2.0 | 0.07 | 0.08 | 0.20 | 71 | 1008.7 |
| 20260506011049 | 48 | 85 | 1.0 | 2.0 | 0.06 | 0.07 | 0.20 | 71 | 1008.5 |
| 20260506010555 | 48 | 77 | 1.0 | 2.0 | 0.06 | 0.07 | 0.20 | 70 | 1008.2 |
| 20260506010049 | 49 | 93 | 0.0 | 1.0 | 0.06 | 0.07 | 0.20 | 70 | 1008.4 |
| 20260506005551 | 49 | 62 | 0.0 | 2.0 | 0.06 | 0.06 | 0.19 | 69 | 1008.3 |
| 20260506005048 | 50 | 109 | 0.0 | 2.0 | 0.05 | 0.05 | 0.18 | 69 | 1008.4 |
| 20260506004549 | 50 | 124 | 2.0 | 2.0 | 0.04 | 0.04 | 0.17 | 68 | 1008.6 |
| 20260506004048 | 50 | 112 | 0.0 | 2.0 | 0.03 | 0.04 | 0.16 | 68 | 1008.1 |
| 20260506003555 | 51 | 116 | 0.0 | 2.0 | 0.02 | 0.03 | 0.15 | 68 | 1008.5 |
| 20260506003048 | 51 | 95 | 0.0 | 2.0 | 0.02 | 0.02 | 0.15 | 67 | 1008.2 |
| 20260506002810 | 51 | 54 | 2.0 | 2.0 | 0.01 | 0.02 | 0.15 | 67 | 1008.4 |
| 20260506002048 | 51 | 89 | 0.0 | 2.0 | 0.01 | 0.02 | 0.14 | 67 | 1008.3 |
| 20260506001548 | 52 | 54 | 1.0 | 2.0 | 0.01 | 0.01 | 0.14 | 67 | 1008.5 |
| 20260506001046 | 52 | 59 | 0.0 | 2.0 | 0.01 | 0.01 | 0.14 | 67 | 1008.2 |
| 20260506000813 | 52 | 72 | 1.0 | 2.0 | 0.01 | 0.01 | 0.14 | 67 | 1008.1 |
| 20260506000312 | 52 | 76 | 0.0 | 2.0 | 0.00 | 0.01 | 0.13 | 66 | 1008.2 |
| 20260505235546 | 52 | 66 | 1.0 | 2.0 | 0.00 | 0.01 | 0.13 | 66 | 1007.9 |
| 20260505235313 | 53 | 68 | 0.0 | 2.0 | 0.00 | 0.00 | 0.13 | 67 | 1008.0 |
| 20260505234547 | 53 | 64 | 1.0 | 2.0 | 0.00 | 0.00 | 0.13 | 67 | 1008.2 |
| 20260505234045 | 53 | 44 | 0.0 | 2.0 | 0.00 | 0.00 | 0.13 | 68 | 1008.2 |
| 20260505233558 | 53 | 89 | 0.0 | 2.0 | 0.00 | 0.00 | 0.13 | 68 | 1008.1 |
| 20260505233044 | 53 | 47 | 1.0 | 2.0 | 0.00 | 0.00 | 0.13 | 68 | 1007.8 |
| 20260505232806 | 53 | 109 | 0.0 | 2.0 | 0.00 | 0.00 | 0.13 | 69 | 1007.9 |
| 20260505232305 | 53 | 44 | 0.0 | 2.0 | 0.00 | 0.00 | 0.13 | 68 | 1007.8 |
| 20260505231544 | 53 | 73 | 0.0 | 2.0 | 0.00 | 0.00 | 0.13 | 68 | 1007.6 |
| 20260505231044 | 53 | 102 | 0.0 | 2.0 | 0.00 | 0.00 | 0.13 | 68 | 1007.7 |
| 20260505230820 | 53 | 23 | 0.0 | 2.0 | 0.00 | 0.00 | 0.13 | 69 | 1007.7 |
| 20260505230046 | 53 | 37 | 0.0 | 2.0 | 0.00 | 0.00 | 0.13 | 68 | 1007.6 |
| 20260505225545 | 53 | 117 | 0.0 | 2.0 | 0.00 | 0.00 | 0.13 | 68 | 1007.6 |
| 20260505225042 | 53 | 122 | 0.0 | 2.0 | 0.00 | 0.00 | 0.13 | 69 | 1007.6 |
| 20260505224543 | 53 | 51 | 1.0 | 2.0 | 0.00 | 0.00 | 0.13 | 69 | 1007.6 |
| 20260505224042 | 53 | 126 | 1.0 | 2.0 | 0.00 | 0.00 | 0.13 | 69 | 1007.7 |
| 20260505223543 | 54 | 76 | 1.0 | 2.0 | 0.00 | 0.00 | 0.13 | 69 | 1007.8 |
| 20260505223046 | 54 | 71 | 0.0 | 2.0 | 0.00 | 0.00 | 0.13 | 69 | 1007.7 |
| 20260505222805 | 54 | 37 | 2.0 | 2.0 | 0.00 | 0.00 | 0.13 | 69 | 1007.7 |
| 20260505222311 | 54 | 55 | 0.0 | 3.0 | 0.00 | 0.00 | 0.13 | 69 | 1007.7 |